Location: Newark
(41.6500°N, 71.4833°W)
Time: 21:59:34
(UTC+00:00)

A-11 Canister half - Pass Details

Date: 26 January 2020
Orbit: 1517 x 1683 km, 47.2° (Epoch: 19 February)

Event Time Altitude Azimuth Distance (km) Brightness Sun altitude
Rises 12:35:57 0° 288° (WNW) 4,668 10.9 4.5°
Reaches altitude 10° 12:40:45 10° 266° (W) 3,695 10.5 5.3°
Maximum altitude 12:45:20 15° 236° (SW) 3,339 10.6 6.0°
Drops below altitude 10° 12:49:58 10° 206° (SSW) 3,733 11.2 6.7°
Sets 12:54:55 0° 184° (S) 4,745 12.0 7.5°
